sat.trackr.live / text

‹ back to catalog

STARLINK-11301 [DTC]

NORAD 61885 · 2024-204M

PAYLOAD ACTIVE UNKNOWN

§ Identity

Operator
Country
US
Launch date
2024-11-09
Launch site
AFWTR
Launch vehicle
Mass (kg)
RCS (m²)

Purposes: comms

External: N2YO · Heavens-Above · Gunter

§ Orbital elements

Epoch: 2026-05-24T19:29:52.080576Z

Period
91.74 min
Inclination
53.1582°
Eccentricity
0.0000778
Mean motion
15.69708870 rev/d
Perigee alt
359.2 km
Apogee alt
360.3 km
Semi-major
6,737.9 km
B*
8.5100e-6
RAAN
340.7757°
Arg perigee
92.9347°
Mean anomaly
267.1760°
Rev number
8,887

§ Raw data

STARLINK-11301 [DTC]1 61885U 24204M   26144.81240834  .00000443  00000+0  85100-5 0  99962 61885  53.1582 340.7757 0000778  92.9347 267.1760 15.69708870 88874

JSON: /api/v1/satellites/61885 · /tle

For live sub-satellite position, see the globe view (requires WebGL).

§ Visibility from observer

Set your observer location to see the next 7 days of passes ≥ 10°. The values pass through the URL so the page stays shareable.

No JS? Fill the form by hand. The geolocation button needs JavaScript.